Showing default

KSM1-D, 46907

Orbit data source: Space-Track

KSM1-D, 46907 is a payload satellite owned by Kleos Space (LU) in LEO that was launched on Sat, 07 Nov 2020 UTC via a PSLV-DL launch vehicle from the Sirharikota (SRI). Payload-class satellites include a variety of spacecraft equipped with specific instruments for various scientific and technological missions. These include communications satellites like Starlink; space stations such as the ISS; scientific satellites like the Hubble; Earth observation satellites from companies like Planet Labs, Umbra, and HawkEye 360; GPS; miniature CubeSats for education and research; and military/defense satellites.

Loading next visibility...
Identifier
46907, 2020-081C
Orbit
LEO
Country
Flag of LULU / LUXE
Related business
Manufacturer
GOMSpace
Mission
Operational Commercial Sigint
Bus & Motor
CUBESAT 6U, Unknown motor
Mass
~10 kg wet, ~10 kg dry
Launch date (UTC)
2020-11-07 (6 years ago)
Launch vehicle
PSLV-DL
Launch site
Sirharikota (SRI)
Object type
Payload
Rocket body
Debris
Shape & HBR
Box, 1.0 m
Radar Cross Section
0.080 m², Medium (>0.1 m² and < 1m²)

Expand to show TLE details & history
Last TLE update: 21 hours ago

TLE from 21 hours ago
0 KSM1-D
1 46907U 20081C   26172.54890231  .00006385  00000-0  25531-3 0  9998
2 46907  36.8973  41.1079 0005158 291.9348  68.0853 15.24772366309769
Epoch: 2026-06-21T13:10Z
TLE epoch observation values (Epoch: 2026-06-21T13:10:25.159Z)
Latitude
0.00003°
Longitude
-66.24448°
Altitude
489.256 km
Speed
7.623 km/s
True Right ascension
02h 44m 25s
True Declination
0° 00' 00"
Sunlit
Object was in daylight at epoch
Visualization orbit readout
Latitude
Unknown
Longitude
Unknown
Altitude
Unknown
Speed
Unknown
Apparent Right ascension
Unknown
Apparent Declination
Unknown
Sunlit
N/A
Visualization observer readout
Local Sidereal Time
21:38:03
Azimuth
Unknown
Elevation
Unknown
Doppler factor
Unknown
Orbital elements
Apogee altitude
497.964 km
Perigee altitude
490.874 km
Semi-major axis
6,872.556 km
Eccentricity
0.00052
Inclination
36.8973°
RAAN
41.1079°
Arg. of periapsis
291.9348°
True anomaly
68.14015°
Mean anomaly
68.0853°
Eccentric anomaly
68.11272°
Mean motion
3.80948 °/min
Orbital period
94.5 mins
BSTAR
0.00025531
Loading maneuver chart data...
Computing Atmospheric mass density...
Loading historical data...
Loading historical data...
Loading historical data...
Loading historical data...
Loading historical data...
Loading historical data...
Loading historical data...

Documentation

Showing up to 5 results
|